Reflectivity
-20 -20 -20 -20 -20 -20 -20 -20 -20 -20 -20 -20 -20 -20 -9 0 7 -13 21 -17 -3 -20 -19 -5 17 -14 3 5 -20 2 -9 -16 -20 -20 -20 -20 -20 -20 -20 -20 -20 -20 -20 -20
-20 -20 -20 -20 -20 -20 -20 -20 -20 -20 -20 -20 -20 -20 -20 5 -9 -20 -19 9 -12 -20 33 -17 14 -5 -20 -10 -20 2 15 -20 -20 -20 -20 -20 -20 -20 -20 -20 -20 -20 -20 -20
-20 -20 -20 -20 -20 -20 -20 -20 -20 -20 -20 -20 -20 -20 -19 -8 -12 -20 -6 22 -14 -20 -14 17 0 -1 -16 -5 -20 1 28 -20 -20 -20 -20 -20 -20 -20 -20 -20 -20 -20 -20 -20
-20 -20 -20 -20 -20 -20 -20 -20 -20 -20 -20 -20 -20 -20 -20 -20 -20 -20 -19 8 17 -1 -20 -7 1 5 1 7 11 18 41 -12 -20 -20 -20 -20 -20 -20 -20 -20 -20 -20 -20 -20
-11 -20 -20 -20 -20 -20 -20 -20 -20 -20 -20 -20 -20 -20 -20 -20 -20 -13 -16 4 11 19 5 -20 -2 2 1 11 7 16 41 -14 -17 -20 -20 -20 -20 -20 -20 -20 -20 -20 -20 -20
-13 -20 -18 10 -20 -20 -20 -20 -20 -20 -20 -20 -20 -20 -20 -20 -20 -15 -10 9 32 14 -3 -7 1 4 8 4 -8 24 12 3 -1 -18 -20 -20 -20 -20 -20 -20 -20 -20 -20 -20
-20 -20 -20 -20 -20 -12 -20 -18 -14 -20 -20 -20 -20 -20 -20 -20 -20 -10 1 -13 -14 37 5 2 -5 -20 -16 2 -19 19 3 -20 -19 -20 -20 -20 -20 -20 -20 -20 -20 -20 -20 -20
4 26 -18 -20 -20 3 -19 -20 -8 -20 -20 -20 -20 -20 -20 -20 -20 -20 4 10 17 11 -18 6 -10 -20 7 -9 -7 -17 12 -20 -20 -20 -20 -20 -20 -20 -20 -20 -20 -20 -20 -20
-14 16 8 -2 -6 4 9 -17 -20 -20 -20 -20 -20 -20 -20 -20 -20 -19 -4 4 -0 -20 -4 6 2 -20 -8 -12 23 33 9 -20 -20 -20 -20 -20 -20 -20 -20 -20 -20 -20 -20 -20
2 6 20 -2 -20 6 9 -13 -0 -20 -20 -20 -20 -20 -20 -20 -20 -20 -20 -20 -20 -20 8 -8 -6 -20 -20 -10 32 -12 -19 -14 -18 -20 -20 -20 -20 -20 -20 -20 -20 -20 -20 -20
14 13 23 0 -20 6 26 -20 -20 -20 -20 -20 -20 -20 -20 -20 -20 -19 -20 -20 -20 -20 -0 -1 -7 -8 -20 -0 -2 33 -18 -2 -20 -20 -20 -20 -20 -20 -20 -20 -20 -20 -20 -20
24 3 9 8 -20 -11 -10 -17 -20 16 7 -20 -20 -20 8 9 -10 -14 -20 -14 -20 -20 -16 -12 -16 1 -20 -20 -20 8 14 5 -20 -20 -20 -20 -20 -20 -20 -20 -20 -20 -20 -20
10 11 22 20 -13 14 7 -13 -20 8 -16 -20 12 27 -20 -20 -14 -19 -20 -20 -6 -12 -12 -9 5 -12 -20 -20 -20 -20 -10 12 -20 -6 -20 -20 -20 -20 -20 -20 -20 -20 -20 -20
9 4 16 25 -6 15 11 7 -20 -11 -4 -20 -7 2 -20 -20 -20 -2 1 -20 -20 -20 -20 -10 5 5 -20 -16 -18 -20 -20 -6 -20 -20 -20 -20 -20 -20 -20 -20 -20 -20 -20 -20
10 1 2 -12 -19 31 -19 -19 -12 -7 5 -17 22 2 -13 -20 -20 -20 -20 -20 -20 -20 -20 -15 -20 -20 -20 -2 -15 -14 31 -20 -20 -20 -20 -20 -20 -20 -20 -20 -20 -20 -20 -20
8 -8 0 20 -16 27 19 17 15 15 -8 23 19 17 -9 -20 -20 -20 -17 -19 -19 -20 29 -20 -20 -20 -15 -20 -14 26 23 -20 -20 -20 -20 29 -20 -20 -20 -20 -20 -20 -20 -20
9 9 17 23 14 -1 2 8 25 7 1 11 13 -5 -20 -20 -20 8 -20 26 29 31 31 -13 -16 -20 -20 -2 9 16 -6 -20 -20 -18 25 2 -20 -20 -20 -20 -20 -20 -20 -20
5 7 17 9 22 20 16 8 5 -5 -14 1 -8 -20 -20 -20 -20 -20 -20 -20 -20 27 32 8 -19 3 24 11 7 7 -9 -20 -20 10 -8 -9 -20 -5 -20 -20 -20 -20 -20 -20
6 3 21 26 26 9 -20 4 10 -1 3 -8 9 -16 -20 -20 -20 -20 -20 -7 -14 8 18 6 19 14 -16 -16 -3 -20 -19 -20 -20 -20 -20 -20 -20 -20 -6 -17 -20 -20 -20 -20
22 14 15 1 13 7 15 9 7 3 -4 -4 10 2 -19 -20 -20 -20 -20 -20 -1 16 14 5 11 26 -1 -18 -20 -18 -20 -13 -20 -20 -16 -3 -20 -20 -18 -5 -17 -20 -20 -20
9 9 11 11 12 9 19 6 20 2 3 21 13 0 -1 5 1 -20 -20 -20 -20 -20 13 24 25 27 -2 1 9 11 10 -4 13 -20 -20 -20 -20 9 8 -11 -20 -20 -20 -20
11 14 14 -5 6 6 25 -8 6 21 24 26 11 2 2 -16 1 10 -11 -20 -20 -20 -20 -20 21 9 6 -3 24 17 15 17 5 -20 -20 -20 -20 -20 -20 -20 -20 -20 -20 -20
22 17 13 15 21 27 30 21 31 30 30 26 9 4 -1 -3 -12 1 15 5 -3 -18 -20 -20 20 -20 -20 22 24 28 23 21 13 21 -20 -20 -20 -20 -20 -20 -20 -20 -20 -20
14 27 11 16 20 16 29 26 29 29 29 28 7 4 0 5 5 -2 3 3 -20 -20 -20 -20 -10 9 -20 -20 -8 4 -8 26 21 24 22 24 21 24 13 -20 -20 -20 -20 -20
9 4 15 12 11 23 25 27 30 31 29 27 -3 -7 -1 -9 -8 8 -11 -13 8 -13 -20 -20 -10 13 -6 -20 -3 7 9 7 19 20 26 24 20 27 14 -6 -20 -20 -20 -20
12 13 11 19 6 10 17 22 27 23 29 29 21 3 -17 -14 -16 -18 0 -13 -19 -6 -4 8 7 14 -6 25 -8 -20 -20 -20 -20 -0 11 14 10 14 6 -5 6 -6 -20 -20
Wind_Speed
20 17 20 23 26 28 30 28 28 25 28 26 31 26 23 19 27 26 23 22 19 23 22 18 15 14 13 15 18 13 13 13 12 11 10 9 8 7 6 5 7 6 7 6
20 23 21 20 23 26 30 32 29 22 25 28 25 31 24 24 26 27 23 26 24 24 22 23 22 16 16 18 15 12 15 14 12 10 9 9 8 7 6 6 7 6 7 7
23 23 21 19 21 25 27 29 29 22 22 21 19 25 25 30 24 22 24 20 25 24 23 21 21 21 19 19 19 13 17 15 15 14 9 8 7 7 6 7 7 6 6 7
23 22 22 22 20 25 28 28 29 22 19 19 22 18 30 27 26 27 23 25 24 23 23 20 20 22 23 18 19 16 17 19 16 15 12 13 10 9 7 7 7 7 6 7
22 23 22 22 25 23 26 25 28 26 22 20 25 21 25 25 28 29 29 29 27 22 26 25 22 19 23 21 18 15 18 16 16 15 13 11 10 8 9 8 10 8 7 6
28 27 15 22 20 23 23 27 27 24 18 19 22 23 22 28 32 30 32 31 24 27 26 23 21 16 17 20 19 18 19 17 15 15 14 14 12 12 10 10 8 7 7 7
26 27 27 22 20 22 26 27 16 16 16 13 25 24 19 25 30 31 30 31 28 22 21 21 20 18 15 20 19 17 18 18 16 16 13 12 11 11 12 12 8 9 7 7
17 9 29 20 18 20 29 28 14 17 17 18 17 21 21 22 30 30 26 22 21 23 21 23 21 19 19 18 19 18 19 19 20 18 16 14 14 9 10 11 8 7 7 8
10 8 25 24 19 25 25 22 24 20 21 15 17 22 16 22 18 29 27 27 25 23 19 22 20 18 18 17 21 19 19 19 21 19 16 15 14 12 11 11 10 8 8 8
6 12 8 21 21 20 26 24 24 15 18 17 20 23 16 19 16 23 28 29 26 26 21 21 18 18 18 18 17 17 18 18 20 18 16 14 14 13 12 11 11 11 9 11
10 8 5 20 20 21 20 25 24 18 12 13 13 14 13 21 19 17 24 25 25 25 22 19 18 18 18 18 15 16 15 16 20 18 16 15 14 13 12 11 11 11 11 12
6 8 8 12 20 22 25 20 26 7 16 13 9 5 11 2 18 16 20 20 22 22 24 23 20 21 18 17 17 17 15 16 18 18 17 16 14 14 13 12 13 12 12 12
12 6 5 11 21 21 21 20 25 18 15 11 7 5 11 13 14 9 19 20 22 24 25 23 20 19 20 19 18 18 18 18 18 19 18 16 15 14 14 14 14 14 13 13
10 9 9 7 10 8 22 19 21 14 6 12 9 14 13 15 13 12 10 22 22 22 25 22 22 21 20 20 20 20 20 17 17 18 18 17 16 16 14 14 15 14 14 13
9 8 13 15 17 16 19 20 22 18 17 11 17 17 14 13 12 14 5 10 18 22 22 20 21 17 17 17 18 19 18 18 17 17 19 17 17 16 15 15 13 13 14 13
7 7 13 9 18 19 23 31 29 17 18 5 20 21 15 14 15 19 20 9 18 18 25 22 20 20 17 16 16 17 17 18 18 18 17 18 17 17 14 14 14 14 14 14
6 6 8 6 11 13 16 21 18 14 20 16 14 10 12 15 16 17 17 18 17 17 9 15 16 17 15 14 14 17 17 17 17 15 16 17 17 17 15 16 15 15 14 12
9 10 5 7 11 8 7 18 9 18 18 19 15 15 15 14 15 17 17 16 14 12 12 11 3 16 17 16 14 14 14 16 16 16 16 16 17 17 16 16 17 15 13 13
5 5 4 6 13 10 24 20 10 7 11 18 16 18 20 7 8 21 19 16 14 12 10 7 8 9 12 18 18 16 16 17 16 18 17 18 17 18 18 17 16 15 13 13
5 6 5 9 11 10 18 21 10 3 11 18 17 18 20 22 6 12 17 15 14 12 11 11 8 6 4 14 16 17 18 18 19 18 18 18 19 18 19 18 17 15 14 15
9 10 15 14 9 8 24 22 2 3 8 15 15 16 16 13 11 13 15 15 14 13 11 8 4 6 7 8 12 12 14 16 16 16 17 16 18 18 16 15 14 15 15 14
16 8 7 11 11 11 23 12 10 6 7 9 14 15 15 14 16 17 18 19 19 18 15 14 7 4 3 9 10 7 6 7 10 13 14 15 16 14 13 16 14 15 14 14
14 8 9 9 8 4 11 9 9 9 6 12 15 16 16 18 18 18 16 18 18 18 16 16 10 2 4 3 9 6 4 4 5 3 8 12 13 13 14 15 15 13 15 12
10 13 15 4 15 14 14 14 14 13 14 14 17 17 17 16 17 17 17 16 16 17 16 17 18 11 8 6 6 7 10 11 10 10 8 7 8 9 11 11 11 11 12 12
11 11 10 12 15 6 16 15 14 14 14 15 18 18 17 16 17 16 15 15 15 16 16 17 17 18 17 8 5 3 7 10 10 12 9 10 9 10 11 11 10 10 11 12
13 11 10 9 13 8 11 14 15 13 16 17 17 19 19 19 19 19 17 18 16 17 17 17 18 18 19 17 17 18 15 3 5 8 8 8 8 9 10 11 8 11 1 12
Wind_Direction
215 225 231 232 226 245 247 235 222 244 220 207 224 218 214 230 201 206 215 197 210 179 179 164 177 157 142 151 163 179 155 159 168 165 168 164 162 151 140 125 150 145 138 155
239 226 243 250 250 241 245 252 251 219 224 220 213 223 212 214 229 199 216 217 199 190 172 170 176 147 155 159 166 171 162 164 178 169 173 173 153 150 138 135 139 130 150 156
232 238 221 230 253 241 235 237 242 237 217 220 218 227 209 205 221 206 214 227 207 196 168 170 158 161 167 171 174 168 168 169 181 181 162 143 135 124 147 144 146 137 149 153
249 249 241 252 228 244 234 228 240 242 208 216 205 217 210 201 208 199 207 231 221 198 166 169 162 171 179 176 176 171 181 180 181 172 160 164 166 161 154 162 127 139 148 148
254 244 238 239 247 221 241 227 227 238 223 209 199 239 193 202 195 208 208 224 229 203 160 170 171 176 186 173 173 175 180 182 173 168 173 174 167 148 150 138 142 139 137 145
261 259 237 253 244 225 223 234 217 237 220 214 214 213 236 188 201 202 209 202 223 174 168 175 173 171 189 177 175 180 169 180 167 178 176 186 167 153 154 149 154 156 153 151
246 237 243 233 236 223 208 219 196 205 216 226 213 201 227 205 194 201 203 200 194 163 156 166 172 172 171 181 169 176 170 176 165 188 173 175 155 162 159 158 167 156 156 157
269 264 243 211 214 224 208 209 207 191 206 211 213 220 209 241 184 200 201 202 188 158 157 172 176 178 172 179 168 170 174 177 175 178 175 164 168 170 161 177 157 168 166 160
310 273 272 200 186 220 198 208 199 201 213 208 213 220 231 223 195 183 197 196 179 174 175 175 173 180 171 169 170 170 177 178 177 176 172 168 169 169 161 163 157 154 152 139
304 293 196 236 200 182 244 208 215 204 207 207 200 200 204 209 193 184 193 195 172 176 171 182 170 173 170 172 172 169 183 177 175 175 170 170 169 170 159 156 165 160 154 156
301 264 308 306 206 199 228 198 217 216 216 226 193 197 195 194 203 205 192 195 172 184 174 181 170 173 171 167 169 177 182 176 174 174 170 167 171 166 161 164 156 161 160 156
15 298 280 255 196 219 201 199 213 213 222 221 207 136 22 81 194 205 195 189 166 179 170 184 167 170 169 167 165 178 180 180 177 173 171 171 166 167 168 166 163 159 166 165
359 291 267 232 197 208 207 201 201 194 207 223 219 110 37 31 25 198 189 174 165 181 172 176 163 170 170 171 172 173 175 180 175 176 173 169 172 171 174 169 167 166 166 166
333 281 287 315 220 233 201 198 198 210 192 217 210 111 49 38 25 359 321 172 182 181 174 166 170 176 173 173 177 176 177 176 175 178 176 175 176 177 176 171 169 172 168 168
340 284 321 301 280 267 203 201 198 190 215 215 91 57 43 34 28 357 286 186 180 176 173 163 171 167 172 181 178 179 179 174 174 183 179 177 179 176 173 173 172 172 172 172
319 289 322 291 238 77 54 22 19 31 360 84 97 67 49 38 35 21 22 354 173 180 167 172 173 165 173 180 180 182 178 175 175 182 184 176 179 177 173 173 175 172 175 174
293 318 328 238 133 104 47 2 32 48 28 23 34 1 22 50 43 31 22 25 22 17 335 166 150 164 178 171 177 176 183 174 174 181 186 180 178 178 172 176 179 176 176 171
280 305 256 294 304 71 108 17 8 60 37 20 31 5 352 83 69 44 27 18 18 13 9 7 156 164 177 169 179 176 176 169 173 180 183 178 179 181 175 177 181 177 176 175
247 287 342 334 76 123 37 359 340 346 44 10 2 4 1 346 186 46 19 7 7 0 358 341 24 336 151 169 174 176 178 175 179 184 188 182 178 182 179 181 179 177 176 175
241 217 347 63 69 44 355 338 328 268 50 356 351 10 5 5 56 11 2 8 4 360 355 349 326 293 242 159 165 176 185 184 186 189 190 183 182 184 187 183 181 176 180 179
18 40 38 41 76 53 350 339 260 9 2 327 0 11 9 19 19 357 5 13 5 7 360 336 274 238 171 149 160 185 187 189 193 193 191 183 185 192 182 178 178 176 180 181
23 26 20 33 49 28 346 3 40 322 306 328 15 14 6 19 6 12 8 15 6 3 4 359 346 298 302 160 156 180 188 176 179 189 192 184 187 188 178 177 176 181 182 182
43 20 52 46 57 347 8 19 10 5 360 4 19 19 14 21 16 20 14 10 8 4 2 356 354 50 123 132 144 164 142 135 107 203 187 179 186 187 183 180 175 181 186 185
35 39 53 29 56 31 20 15 15 16 16 14 31 28 29 30 23 22 20 11 15 6 8 7 358 49 66 23 108 139 160 172 174 180 182 184 191 188 192 185 181 186 184 188
18 15 65 60 25 43 26 18 10 17 22 21 40 36 32 33 33 33 24 22 23 16 10 18 11 23 13 38 52 41 139 173 177 174 183 180 192 190 198 200 194 191 193 193
23 12 36 39 29 29 17 24 23 27 31 29 28 38 34 28 29 25 21 22 19 22 18 25 19 22 18 18 24 9 353 189 201 175 187 188 195 187 202 200 187 55 318 180